Location: Berlin
(52.5170°N, 13.4000°E)
Time: 16:00:34
(UTC+02:00)

ISS - Pass Details

Date: 20 July 2018
Orbit: 402 x 408 km, 51.6° (Epoch: 23 July)

Event Time Altitude Azimuth Distance (km) Brightness Sun altitude
Rises 03:50:19 0° 281° (W) 2,334 -0.2 -9.2°
Reaches altitude 10° 03:52:33 10° 270° (W) 1,471 -1.3 -9.0°
Maximum altitude 03:55:27 29° 208° (SSW) 780 -2.9 -8.7°
Drops below altitude 10° 03:58:21 10° 146° (SSE) 1,467 -1.2 -8.4°
Sets 04:00:35 0° 135° (SE) 2,326 0.0 -8.2°
